Home   Weather   Al Khor   Past weeks

Flag for Qatar Past Weather in Al Khor, Qatar — Yesterday and Last 2 Weeks

88 °F


Feels Like: 91 °F
Forecast: 74 / 92 °F
Wind: 8 mph from Northeast

Location: Doha International Airport

Current Time: Oct 27, 2016 at 5:51:31 PM

Latest Report: Oct 27, 2016 at 5:00 PM

Visibility: 10 mi

Pressure: 30.01 "Hg

Humidity: 52%

Dew Point: 68 °F

Location of Al KhorLocation

Past Weather in Al Khor — Graph


Al Khor Temperature Yesterday

Maximum temperature yesterday: 90 °F (at 1:00 PM)
Minimum temperature yesterday: 81 °F (at 12:00 AM)
Average temperature yesterday: 85 °F

High & Low Weather Summary for the Past Weeks

High99 °F (Oct 13, 12:00 PM)94% (Oct 27, 4:00 AM)30.07 "Hg (Oct 27, 4:00 AM)
Low75 °F (Oct 25, 5:00 AM)14% (Oct 15, 4:00 PM)29.77 "Hg (Oct 12, 4:00 PM)
Average85 °F60%29.86 "Hg
* Reported Oct 12 4:00 PM — Oct 27 4:00 PM, Al Khor, Weather by CustomWeather, © 2016

Note: Actual official high and low records may vary slightly from our data, if they occured in-between our weather recording intervals... More about our weather records


Al Khor Weather History for the Previous 24 Hours

Scroll right to see more
Time TempWeatherWind HumidityBarometerVisibility
4:00 PM
Thu, Oct 27
90 °FSunny.10 mph43%30.01 "Hg10 mi
3:00 PM91 °FSunny.10 mph44%30.01 "Hg10 mi
2:00 PM91 °FSunny.13 mph44%30.01 "Hg10 mi
1:00 PM91 °FSunny.12 mph49%30.01 "Hg10 mi
12:00 PM91 °FPassing clouds.13 mph52%30.04 "HgN/A
11:00 AM91 °FSunny.12 mph41%30.04 "Hg10 mi
10:00 AM90 °FClear.8 mph55%30.07 "Hg6 mi
9:00 AM88 °FClear.8 mph66%30.07 "Hg5 mi
8:00 AM86 °FClear.8 mph70%30.07 "Hg4 mi
7:00 AM82 °FHaze.6 mph89%30.04 "Hg3 mi
6:00 AM81 °FHaze.6 mph94%30.01 "Hg2 mi
5:00 AM79 °FFog.6 mph94%29.98 "Hg3 mi
4:00 AM79 °FClear.6 mph94%29.98 "Hg4 mi
3:00 AM79 °FClear.6 mph89%29.95 "Hg4 mi
2:00 AM81 °FClear.3 mph89%29.95 "Hg4 mi
1:00 AM81 °FClear.2 mph89%29.95 "Hg4 mi
12:00 AM81 °FClear.3 mph84%29.95 "Hg4 mi
11:00 PM
Wed, Oct 26
82 °FClear.3 mph84%29.95 "Hg4 mi
10:00 PM82 °FClear.2 mph84%29.98 "Hg4 mi
9:00 PM84 °FClear.5 mph79%29.95 "Hg4 mi
8:00 PM84 °FClear.6 mph74%29.95 "Hg5 mi
7:00 PM84 °FClear.5 mph74%29.95 "Hg6 mi
6:00 PM84 °FClear.6 mph74%29.92 "Hg6 mi
5:00 PM86 °FPassing clouds.7 mph75%29.92 "Hg4 mi
Weather by CustomWeather, © 2016

See weather overviewHow to use our weather pages